Regional Weather Roundup
Issued by NWS

Home | Current Version | Previous Version | Text Only | Print | Product List | Glossary On
Versions: 1 2 3 4 5 6 7 8 9 10 11 12 13 14 15 16 17 18 19 20 21 22 23 24 25 26 27 28 29 30 31 32 33 34 35 36 37 38 39 40 41 42 43 44 45 46 47 48 49 50
000
ASUS44 KBMX 272310
RWRAL

ALABAMA REGIONAL WEATHER ROUNDUP
NATIONAL WEATHER SERVICE BIRMINGHAM AL
500 PM CST FRI FEB 27 2015

NOTE: "FAIR" INDICATES FEW OR NO CLOUDS BELOW 12,000 FEET
WITH NO SIGNIFICANT WEATHER AND/OR OBSTRUCTIONS TO VISIBILITY.

THE REMARK "TC" DENOTES TEMPERATURE IN DEGREES CELSIUS.

ALZ001>011-014-016>018-020-280000-
NORTH ALABAMA

CITY           SKY/WX    TMP DP  RH WIND       PRES   REMARKS
MUSCLE SHOALS  CLEAR     38  15  39 E7        30.47S WCI  33
HUNTSVILLE     PTCLDY    37  18  46 NE9       30.45S WCI  30
DECATUR        CLEAR     36  15  42 NE8       30.47S WCI  30
HALEYVILLE       N/A     33  16  50 NE6       30.46S WCI  27
GADSDEN        CLEAR     39  19  45 N13       30.41S WCI  32
$$

ALZ012-013-022-023-030>036-040>044-280000-
WEST CENTRAL ALABAMA

CITY           SKY/WX    TMP DP  RH WIND       PRES   REMARKS
TUSCALOOSA     CLEAR     45  20  36 N13       30.42R
$$

ALZ015-024>027-033>036-040>044-280000-
CENTRAL ALABAMA

CITY           SKY/WX    TMP DP  RH WIND       PRES   REMARKS
BIRMINGHAM     CLEAR     41  18  39 N12       30.43S
MONTGOMERY     CLEAR     50  27  40 N13       30.36S
SHELBY CO ARPT CLEAR     45  20  36 VRB5      30.40R
MAXWELL AFB    CLEAR     50  28  43 N10       30.35R
GREENVILLE     FAIR      51  26  37 NE10      30.33R
$$

ALZ019-021-028-029-037-038-045>048-280000-
EAST CENTRAL ALABAMA

CITY           SKY/WX    TMP DP  RH WIND       PRES   REMARKS
ANNISTON       CLEAR     43  21  41 N8        30.40S
ALEXANDER CITY CLEAR     49  16  27 N8        30.36S
AUBURN         CLEAR     48  21  34 NE9       30.36S
$$

ALZ051>064-280000-
SOUTHWEST ALABAMA

CITY           SKY/WX    TMP DP  RH WIND       PRES   REMARKS
MOBILE         PTCLDY    52  29  41 N13       30.30S
BROOKLEY FIELD CLEAR     55  32  41 N13       30.31R
EVERGREEN      CLEAR     52  29  41 N8        30.33R
$$

ALZ049-050-065>069-280000-
SOUTHEAST ALABAMA

CITY           SKY/WX    TMP DP  RH WIND       PRES   REMARKS
DOTHAN         PTCLDY    55  32  41 NE9       30.32S
OZARK          PTCLDY    56  27  32 N10       30.29R
TROY           CLEAR     53  28  38 N10       30.33R
EUFAULA        FAIR      56  28  34 VRB3      30.31R
$$



USA.gov is the U.S. government's official web portal to all federal, state and local government web resources and services.